www.pogodaiklimat.ru
ПОГОДА в Окмулги
Время
и дата
05:35 06.02
05:55 06.02
06:15 06.02
06:35 06.02
06:55 06.02
07:15 06.02
07:35 06.02
07:55 06.02
08:15 06.02
08:35 06.02
08:55 06.02
09:15 06.02
09:35 06.02
09:55 06.02
10:15 06.02
10:35 06.02
10:55 06.02
11:15 06.02
11:35 06.02
11:55 06.02
12:15 06.02
12:35 06.02
12:55 06.02
13:15 06.02
13:35 06.02
13:55 06.02
14:15 06.02
14:35 06.02
14:55 06.02
15:15 06.02
15:35 06.02
15:55 06.02
16:15 06.02
16:35 06.02
16:55 06.02
17:15 06.02
17:35 06.02
17:55 06.02
18:15 06.02
18:35 06.02
18:55 06.02
19:15 06.02
19:35 06.02
19:55 06.02
20:15 06.02
20:35 06.02
20:55 06.02
21:15 06.02
Ветер
(напр.,м/с)
Видим. Явления Облачность Т
(С)
Тd
(С)
f
(%)
Тe
(С)
Тes
(С)
Комфортность P
(гПа)
Po
(гПа)
Тmin
(С)
Tmax
(С)
R
(мм)
R24
(мм)
S
(см)
Ю 6 16 км ясно +10.5 +8.7 89 +7 +7 987.6
Ю 7 16 км ясно +10.8 +8.5 86 +7 +7 987.6 +3.8 +10.9
Ю 6
{9}
16 км ясно +11.4 +8.8 84 +8 +8 987.6
Ю 6
{10}
16 км ясно +11.8 +8.7 81 +9 +9 987.6
Ю 6
{10}
16 км ясно +11.8 +8.5 80 +9 +9 987.6
Ю 6
{9}
16 км ясно +12.0 +8.7 80 +9 +9 987.6
Ю 6
{8}
16 км ясно +11.9 +9.0 82 +9 +9 987.6
Ю 6
{10}
16 км ясно +12.5 +9.3 81 +10 +10 987.3
Ю 6
{10}
16 км ясно +12.8 +9.5 80 +10 +11 986.9
Ю 7
{9}
16 км 5/5 450 м +13.5 +9.6 77 +11 +11 986.9
Ю 7
{9}
16 км 5/5 450 м +14.1 +9.8 75 +12 +12 986.9
Ю 8
{11}
16 км ясно +15.0 +9.7 71 +13 +13 986.6
Ю 10
{17}
16 км ясно +15.5 +9.7 68 +13 +13 986.6
Ю 8
{13}
16 км ясно +16.0 +9.5 65 +14 +15 986.6
Ю 10
{13}
16 км ясно +16.3 +9.1 62 +14 +15 986.6
Ю 11
{16}
16 км 5/5 690 м +17.1 +9.3 60 +15 +15 986.6
Ю 11
{16}
16 км 8/8 630 м +16.1 +9.1 63 +14 +14 986.6
Ю 10
{17}
16 км 8/8 630 м +16.6 +8.6 59 +15 +15 986.9
Ю 11
{16}
16 км 8/8 630 м +16.3 +8.7 61 +14 +14 986.6
Ю 10
{15}
16 км 10/10 570 м +15.4 +8.9 65 +13 +13 986.6 +10.9 +17.1
Ю 9
{14}
16 км 10/10 510 м +15.6 +9.1 65 +14 +14 986.3
Ю 8
{14}
16 км 10/10 510 м +15.7 +9.2 65 +14 +14 985.9
Ю 10 16 км 10/10 510 м +15.6 +9.3 66 +13 +13 985.3
Ю 8
{13}
16 км 10/10 570 м +15.8 +9.3 65 +14 +14 985.0
Ю 10
{12}
16 км 10/10 630 м +16.5 +9.3 62 +15 +15 984.6
Ю 8
{12}
16 км 10/10 690 м +17.0 +9.5 61 +16 +16 984.0
Ю 9
{13}
16 км 10/10 750 м +18.0 +9.7 58 +17 +17 984.0
Ю 7
{13}
16 км 8/8 810 м +18.3 +9.3 56 +18 +18 983.3
Ю 10
{13}
16 км 8/8 870 м +18.0 +9.1 56 +17 +17 983.3
Ю 8
{12}
16 км 10/10 990 м +18.4 +9.0 54 +18 +18 983.3
Ю 9
{13}
16 км 8/8 990 м +18.6 +9.1 54 +18 +18 983.0
Ю 9
{11}
16 км 8/8 1050 м +19.0 +8.9 52 +19 +19 983.3
Ю 9
{16}
16 км 8/8 1050 м +19.1 +9.0 52 +19 +19 983.3
Ю 9
{12}
16 км 8/8 1050 м +19.0 +9.1 53 +19 +19 983.3
Ю 9
{14}
16 км 8/8 1050 м +18.7 +9.0 53 +18 +18 983.6
Ю 7
{12}
16 км 5/5 1050 м +18.2 +9.0 55 +18 +18 983.6
Ю 9
{12}
16 км 5/5 1110 м +18.1 +9.1 56 +17 +17 983.6
Ю 6
{12}
16 км 5/5 1110 м +18.0 +9.1 56 +17 +18 984.0 +15.5 +19.5
Ю 6
{10}
16 км ясно +17.5 +9.3 59 +17 +17 984.3
Ю 6
{10}
16 км 5/5 1290 м +17.5 +9.5 59 +17 +17 984.6
Ю 7
{10}
16 км 8/8 1290 м +17.1 +9.7 62 +16 +16 985.0
Ю 3 16 км 10/10 1200 м +17.3 +10.0 62 +17 +17 985.0
Ю 3 16 км 10/10 1140 м +16.7 +10.0 65 +17 +17 985.3
16 км 10/10 1080 м +17.2 +10.0 63 +17 +17 985.6
ЮВ 3 16 км 10/10 1080 м +17.0 +10.0 63 +17 +17 985.6
ЮВ 4 16 км 10/10 1230 м +16.4 +9.9 65 +16 +16 985.6
ЮВ 3 16 км 8/8 1500 м +15.5 +9.8 69 +15 +15 985.9
ЮВ 4 16 км 8/8 1200 м +15.7 +10.0 69 +15 +15 985.6
Местоположение метеостанции Okmulgee Municipal Airport: широта 35.6681 долгота -95.9486 высота над уровнем моря 220 м.
В архиве по умолчанию представлена погода в Окмулги за последние 1-2 суток. Обновление информации о фактической погоде в базе происходит ежечасно! Архивные данные за месяц целиком и за предыдущие месяцы Вы можете получить, выбрав интересующий диапазон дат из раскрывающегося списка и нажав кнопку "Ввод!".
Внимание! Архив погоды МЕТАР в базе сайта по станциям, не включенным в климатический монитор, хранится не более 60 дней. Нет смысла пытаться выбрать более раннюю дату.
*Определитесь, кто Вы:
Внимание! Время в таблицах - местное (без учета летнего времени). Для получения всемирного времени необходимо вычесть поправку, которая равна -6 ч.
Смотрите также архив погоды в соседних городах и на ближайших метеорологических станциях:
Партнеры нашего сайта:      
Пояснения к столбцам:
  • Ветер - указаны скорость ветра в м/с - средняя за 10 мин, порывы в срок и между сроками (в фигурных скобках) и направление, откуда дует ветер: С - северный,
  • СВ - северо-восточный, В - восточный, ЮВ - юго-восточный, Ю - южный, ЮЗ - юго-западный, З - западный, СЗ - северо-западный.
  • Видимость - горизонтальная дальность видимости в метрах или километрах. При видимости от 1 до 10 км при отсутствии осадков обычно наблюдается дымка, при ухудшении видимости до 1 км и менее - туман. В сухую погоду видимость может ухудшаться дымом, пылью или мглою.
  • Явления - указаны атмосферные явления, наблюдавшиеся в срок или в последний час перед сроком; фигурными скобками обозначены явления, наблюдавшиеся между сроками (за 1-3 часа до срока); квадратными скобками обозначены град или гололедные отложения с указанием их диаметра в мм.
  • Облачность - указаны через наклонную черту общая и нижняя облачность в баллах и высота нижней границы облаков в метрах; квадратными скобками обозначены формы облаков: Ci - перистые, Cs - перисто-слоистые, Cc - перисто-кучевые, Ac - высококучевые, As - высокослоистые, Sc - слоисто-кучевые, Ns - слоисто-дождевые, Cu - кучевые, Cb - кучево-дождевые. Подробнее классификацию облаков см. в Атласе облаков (PDF).
  • T - Температура воздуха - температура, измеренная на высоте 2 м над землей.
  • Td - Температура точки росы - температура, при понижении до которой содержащийся в воздухе водяной пар достигнет насыщения.
  • f - Относительная влажность воздуха - влажноcть воздуха, измеренная на высоте 2 м над землей.
  • Te - Эффективная температура - температура, которую ощущает одетый по сезону человек в тени. Характеристика душности погоды. При расчете учитывается влияние влажности воздуха и скорости ветра на теплоощущения человека.
  • Tes - Эффективная температура на солнце - температура, которую ощущает человек, с поправкой на солнечный нагрев. Характеристика знойности погоды. Зависит от высоты солнца над горизонтом, облачности и скорости ветра. Ночью, в пасмурную погоду, а также при ветре 12 м/с и более поправка равна нулю.
  • P - Атмосферное давление - приведенное к уровню моря атмосферное давление.
  • Po - Атмосферное давление - измеренное на уровне метеостанции атмосферное давление.
  • Tmin - Минимальная температура - минимум температуры воздуха на высоте 2 м над землей.
  • Tmax - Максимальная температура - максимум температуры воздуха на высоте 2 м над землей.
  • R - Количество осадков - Количество выпавших осадков за период времени, мм. При наведении курсора мыши на число - период времени, за который выпало указанное количество осадков.
  • R24 - Количество осадков - Количество выпавших осадков за 24 часа, мм.
  • S - Снежный покров - Высота снежного покрова, см. При наведении курсора мыши на число - состояние снежного покрова и степень покрытия местности в баллах.